カタログに戻る

STARLINK-33913

運用中通信VLEO
NORAD 65215·PAYLOAD·🇺🇸 United States

打ち上げ Aug 14, 2025 から Cape Canaveral Space Force Station

Loading…

次のパス (今後24時間)

TLE

最新Source: CelesTrak SupGP

元期: Sep 14, 2026, 21:34 UTC

1 65215C 25176T   26257.89909722 -.00009953  00000+0 -29409-3 0  2579
2 65215  53.1592 352.0779 0001145  79.5888 313.0922 15.34393908    11

AllMySatでSTARLINK-33913をリアルタイム追跡

Download on the App Store